ISIS 1 (3669 NORAD) Tracking and Keplerian Element Data

This shows tracking and keplerian element data for the satellite.

Feedback or suggestion? Click here.




ElementValue
Catalog3669
NameISIS 1
Epoch Orbit17753
Epoch Day15.54666727
Epoch Year2022
RAAN322.7191
Inclination88.4295
Eccentricity0.1710048
Argument of Perigee263.4173
Mean Anonmoly77.0291
Mean Motion11.29524372
Decay Rate-5E-08
L11 03669U 69009A 22015.54666727 -.00000005 00000+0 -23972-5 0 9995
L22 03669 88.4295 322.7191 1710048 263.4173 77.0291 11.29524372177539

Live tracking and technical data element details for ISIS 1 (NORAD 3669). ISIS 1 can be tracked NOW for your location showing map with azimuth and elevation plus other details from your city location.

Track the satellite on the map from your city or location and see movement details for azimuth, elevation, latitude, longitude, range, height, and movement on the map or in text.







IsCatalogInMostPopularTable: catalog: 3669, numindb: 273
Update: records affected: 1



GetName: 3669 ISIS 1

Hit Count: updated at: Mon, 17 Jan 2022 01:23:37 GMT